Flag for Germany Weather past 2 weeks in Rottenburg am Neckar, Baden-Württemberg, Germany

Now
63 °F

Overcast.


Feels Like: 63 °F
Forecast: 45 / 69 °F
Wind: 1 mph from East

Location: Stuttgart-Echterdingen

Current Time: Apr 26, 2015 at 9:58:12 PM

Latest Report: Apr 26, 2015 at 9:00 PM


Visibility: 44 mi

Pressure: 29.64 "Hg

Humidity: 59%

Dew point: 48 °F

Location of Rottenburg am NeckarLocation

Historic Weather in Rottenburg am Neckar — Graph

°F

Rottenburg am Neckar temperature yesterday

Maximum temperature yesterday: 65 °F (at 2:00 PM)
Minimum temperature yesterday: 41 °F (at 6:00 AM)
Average temperature yesterday: 54 °F

Past Weeks' High & Low Weather Summary

 TemperatureHumidityPressure
High77 °F (Apr 15, 4:00 PM)89% (Apr 26, 7:00 AM)30.47 "Hg (Apr 26, 7:00 AM)
Low34 °F (Apr 23, 7:00 AM)17% (Apr 15, 3:00 PM)29.63 "Hg (Apr 26, 8:00 PM)
Average54 °F56%30.15 "Hg
* Reported Apr 11 8:00 PM — Apr 26 8:00 PM, Rottenburg am Neckar, Weather by CustomWeather, © 2015

Note: Actual official high and low records may vary slightly from our data, if they occured in-between our weather recording intervals... More about our weather records

Advertising

Rottenburg am Neckar weather history for previous 24 hours

 ConditionsComfort  
Time TempWeatherWind HumidityBarometerVisibility
8:00 PM
Sun, Apr 26
65 °FOvercast.2 mph57%29.63 "Hg43 mi
7:00 PM67 °FOvercast.2 mph48%29.64 "Hg43 mi
6:00 PM68 °FOvercast.5 mph47%29.65 "Hg43 mi
4:00 PM69 °FOvercast.3 mph39%29.68 "Hg37 mi
3:00 PM66 °FOvercast.3 mph50%29.72 "Hg43 mi
2:00 PM67 °FOvercast.2 mph53%29.74 "Hg43 mi
1:00 PM67 °FOvercast.2 mph50%29.76 "Hg43 mi
12:00 PM65 °FScattered clouds.2 mph50%29.79 "Hg43 mi
10:00 AM61 °FPassing clouds.2 mph65%29.82 "Hg43 mi
9:00 AM58 °FPassing clouds.2 mph75%29.84 "Hg43 mi
8:00 AM55 °FScattered clouds.No wind83%29.85 "Hg43 mi
7:00 AM52 °FPartly sunny.1 mph89%29.85 "Hg47 mi
6:00 AM53 °FOvercast.1 mph85%29.84 "Hg43 mi
4:00 AM52 °FOvercast.1 mph85%29.87 "Hg40 mi
3:00 AM54 °FOvercast.1 mph81%29.86 "Hg40 mi
2:00 AM54 °FOvercast.1 mph81%29.88 "Hg37 mi
1:00 AM55 °FOvercast.3 mph79%29.87 "Hg34 mi
12:00 AM56 °FOvercast.2 mph80%29.86 "Hg28 mi
10:00 PM
Sat, Apr 25
56 °FSprinkles. Overcast.1 mph87%29.86 "Hg25 mi
9:00 PM57 °FOvercast.1 mph85%29.85 "Hg28 mi
Weather by CustomWeather, © 2015

See weather overviewHow to use our weather pages